STARLINK-32802, 62738

Orbit data source: Space-Track

STARLINK-32802, 62738 is a payload satellite owned by SpaceX/Seattle (US) in LEO that was launched on Tue, 21 Jan 2025 UTC via an FALCON 9 launch vehicle from the Air Force Eastern Test Range (AFETR). Payload-class satellites include a variety of spacecraft equipped with specific instruments for various scientific and technological missions. These include communications satellites like Starlink; space stations such as the ISS; scientific satellites like the Hubble; Earth observation satellites from companies like Planet Labs, Umbra, and HawkEye 360; GPS; miniature CubeSats for education and research; and military/defense satellites.

Loading next visibility...
Identifier
62738, 2025-014D
Orbit
LEO
Country
Flag of USUS
Related business
Manufacturer
SpaceX/Seattle
Mission
Operational Commercial Communications
Bus & Motor
STARLINK V2M, Unknown motor
Mass
730 kg wet, ~700 kg dry
Launch date (UTC)
2025-01-21 (11 months ago)
Launch vehicle
FALCON 9
Launch site
Air Force Eastern Test Range (AFETR)
Object type
Payload
Rocket body
Debris
Shape & HBR
Box + 2 Pan, 17.7 m
Radar Cross Section
33.884 m², Large (>1 m²)

Expand to show TLE details & history
Last TLE update: 16 hours ago

TLE from 16 hours ago
0 STARLINK-32802
1 62738U 25014D   25348.96359573  .00007159  00000-0  26952-3 0  9996
2 62738  43.0005 272.5301 0001211 266.5644  93.5069 15.27565932 50303
Epoch: 2025-12-14T23:07Z
TLE epoch observation values (Epoch: 2025-12-14T23:07:34.671Z)
Latitude
-0.00001°
Longitude
-158.23334°
Altitude
482.918 km
Speed
7.626 km/s
True Right ascension
18h 10m 07s
True Declination
0° 00' 00"
Sunlit
Object was in daylight at epoch
Visualization orbit readout
Latitude
Unknown
Longitude
Unknown
Altitude
Unknown
Speed
Unknown
Apparent Right ascension
Unknown
Apparent Declination
Unknown
Sunlit
N/A
Visualization observer readout
Local Sidereal Time
13:26:14
Azimuth
Unknown
Elevation
Unknown
Doppler factor
Unknown
Orbital elements
Apogee altitude
485.867 km
Perigee altitude
484.205 km
Semi-major axis
6,863.173 km
Eccentricity
0.00012
Inclination
43.0005°
RAAN
272.5301°
Arg. of periapsis
266.5644°
True anomaly
93.52075°
Mean anomaly
93.5069°
Eccentric anomaly
93.51383°
Mean motion
3.81729 °/min
Orbital period
94.31 mins
BSTAR
0.00026952
Loading maneuver chart data...
Computing Atmospheric mass density...
Loading historical data...
Loading historical data...
Loading historical data...
Loading historical data...
Loading historical data...
Loading historical data...
Loading historical data...

Documentation

Showing up to 5 results
|